エンケ彗星

2P/Encke (2023)

English version
Home page
Updated on July 27, 2024

---------------------------------------------------------------------

・ プロフィール

・ 写真集

・ 軌道要素

Epoch 2024 Mar. 31.0 TT = JDT 2460400.5
T 2023 Oct. 22.52802 TT                                 Rudenko
q   0.3395661            (2000.0)            P               Q
n   0.29826115     Peri.  187.28686     -0.94614929     -0.31206457
a   2.2185621      Node   334.01730     +0.30605299     -0.77554144
e   0.8469432      Incl.   11.33726     +0.10551350     -0.54877242
P   3.30
>From 3536 observations 2009 Aug. 22-2023 Oct. 13, mean residual 0".8.
     Nongravitational parameters A1 = +0.01, A2 = -0.0001.

・ 星図

・ 光度変化

        H = 14.2  G = 0.15                [    ,-110]  (              〜2023年 7月 4日)
        m1 =  9.8 + 5 logΔ + 25   log r  [-110, -45]  (2023年 7月 4日〜2023年 9月 7日)
        m1 = 10.3 + 5 logΔ +  7   log r  [ -45,  20]  (2023年 9月 7日〜2023年11月11日)
        m1 = 12.3 + 5 logΔ + 15.7 log r  [  20,  85]  (2023年11月11日〜2024年 1月15日)
        H = 14.2  G = 0.15                [  85,    ]  (2024年 1月15日〜              )

---------------------------------------------------------------------

軌道要素はM.P.E.C. 2024-D126に掲載されたものです。
星図はステラナビゲータ Ver.10 (アストロアーツ) で作成したものです。
光度グラフはComet for Windowsで作成したものです。

---------------------------------------------------------------------

Copyright(C) Seiichi Yoshida (comet@aerith.net). All rights reserved.